Retour au catalogue

STARLINK-32900

ActifCommunicationsVLEO
NORAD 63093·PAYLOAD·🇺🇸 United States

Lancé Feb 23, 2025 depuis Vandenberg Space Force Base

Loading…

Prochains Passages (prochaines 24 heures)

TLE

FraisSource: CelesTrak SupGP

Époque: Sep 14, 2026, 21:19 UTC

1 63093C 25037S   26257.88868056  .00046059  00000+0  16022-2 0  2572
2 63093  70.0006 235.9208 0003156 266.2229 313.2856 15.29557667    11

Suivez STARLINK-32900 en temps réel avec AllMySat

Download on the App Store